Back to catalog

NOAA 16 DEB

AlivePO
NORAD 41348·DEBRIS·🇺🇸 United States

Launched Sep 21, 2000 from Vandenberg Space Force Base

Loading…

Next Passes (next 24 hours)

TLE

FreshSource: Space-Track

Epoch: Sep 13, 2026, 04:20 UTC

1 41348U 00055HR  26256.18101692  .00037677  00000-0  38347-2 0  9996
2 41348  98.7815  44.0862 0012770 119.9045 240.3440 14.90558625552947

Track NOAA 16 DEB in real time with AllMySat

Download on the App Store